Overview Statistics Trail Chart Weather Telemetry Raw packets
 

This is the latest recevied weather packets stored in our database for station/object KB4MLW-13. If no packets are shown the sender has not sent any weather packets the latest 10 day(s).

<< 5 6 7 8 9 10 11 >>
Time Temp. Humidity Pressure Rain* Wind** Luminosity Snow
1788371818 34.44° C 55% 1001.4 hPa 0 mm - - -
1788371758 34.44° C 56% 1001.2 hPa 0 mm - - -
1788371669 34.44° C 55% 1001.3 hPa 0 mm - - -
1788371578 35° C 55% 1001.3 hPa 0 mm - - -
1788371518 35° C 54% 1001.6 hPa 0 mm - - -
1788371430 35° C 57% 1001.4 hPa 0 mm - - -
1788371368 35° C 54% 1001.6 hPa 0 mm - - -
1788371308 35° C 56% 1001.6 hPa 0 mm - - -
1788371248 35.56° C 52% 1001.7 hPa 0 mm - - -
1788371158 36.11° C 52% 1001.6 hPa 0 mm - - -
1788371098 36.11° C 51% 1001.4 hPa 0 mm - - -
1788371038 35.56° C 52% 1001.5 hPa 0 mm - - -
1788370978 35.56° C 55% 1001.5 hPa 0 mm - - -
1788370889 36.11° C 53% 1001.6 hPa 0 mm - - -
1788370849 36.11° C 51% 1001.3 hPa 0 mm - - -
1788370768 36.11° C 53% 1001.4 hPa 0 mm - - -
1788370708 36.11° C 53% 1001.5 hPa 0 mm - - -
1788370648 35.56° C 57% 1001.7 hPa 0 mm - - -
1788370558 35.56° C 58% 1001.6 hPa 0 mm - - -
1788370498 35.56° C 55% 1001.6 hPa 0 mm - - -
1788370438 35.56° C 54% 1001.8 hPa 0 mm - - -
1788370378 35° C 57% 1001.7 hPa 0 mm - - -
1788370318 34.44° C 57% 1001.5 hPa 0 mm - - -
1788370258 34.44° C 54% 1001.7 hPa 0 mm - - -
1788370168 35° C 55% 1001.7 hPa 0 mm - - -

* Rain latest hour (hover to see other rain measurements)
** Current wind speed in m/s (hover to see current wind gust speed)